Location: Wellington
(41.3000°S, 174.7830°E)
Time: 08:33:00
(UTC+13:00)

Cosmos 1486 Rocket - Pass Details

Date: 24 January 2019
Orbit: 759 x 783 km, 74.1° (Epoch: 17 February)

Event Time Altitude Azimuth Distance (km) Brightness Sun altitude
Exits shadow 22:36:52 - 345° (NNW) 2,525 6.4 -17.0°
Reaches altitude 10° 22:37:28 10° 345° (NNW) 2,296 6.2 -17.1°
Maximum altitude 22:42:41 84° 72° (ENE) 782 3.9 -17.8°
Drops below altitude 10° 22:48:00 10° 159° (SSE) 2,337 6.9 -18.4°
Sets 22:50:24 0° 159° (SSE) 3,274 7.7 -18.7°
